Regional Weather Roundup
Issued by NWS

Home | Current Version | Previous Version | Text Only | Print | Product List | Glossary Off
Versions: 1 2 3 4 5 6 7 8 9 10 11 12 13 14 15 16 17 18 19 20 21 22 23 24 25 26 27 28 29 30 31 32 33 34 35 36 37 38 39 40 41 42 43 44 45 46 47 48 49 50

000
ASUS43 KMPX 140710
RWRMN
WEATHER ROUNDUP FOR MINNESOTA
NATIONAL WEATHER SERVICE TWIN CITIES/CHANHASSEN MN
200 AM CDT MON JUL 14 2014


NOTE: "FAIR" INDICATES FEW OR NO CLOUDS BELOW 12,000 FEET WITH NO
SIGNIFICANT WEATHER AND/OR OBSTRUCTIONS TO VISIBILITY. N/A MEANS
CURRENT SKY AND/OR WEATHER CONDITIONS ARE NOT AVAILABLE.

MNZ060>063-068>070-140800-
   Twin Cities Metro

CITY           SKY/WX    TMP DP  RH WIND       PRES   REMARKS
TWIN CITIES    MOCLDY    65  50  58 NW7       29.89F
ST PAUL        MOCLDY    64  50  60 NW8       29.88F
CRYSTAL        PTCLDY    63  50  62 NW5       29.88F
BLAINE         PTCLDY    63  52  67 NW7       29.89F
LAKEVILLE      CLEAR     57  50  77 W6        29.89F
EDEN PRAIRIE   MOCLDY    65  50  58 NW7       29.89S
SOUTH ST PAUL  MOCLDY    64  51  62 W3        29.88F
LAKE ELMO      CLOUDY    61  52  72 NW5       29.89F
$$
MNZ001>005-007-008-013>017-022>024-027-028-140800-
   Northwest Minnesota

CITY           SKY/WX    TMP DP  RH WIND       PRES   REMARKS
BEMIDJI        LGT RAIN  50  48  94 NW12G18   29.89S
HALLOCK        MOCLDY    52  46  82 N14G24    29.97R
ROSEAU         CLOUDY    48  43  81 NW13      29.91R
WARROAD        MOCLDY    48  45  87 NW13      29.89S
THIEF RVR FALL CLOUDY    52  48  87 NW14G20   29.93S
CROOKSTON      HVY RAIN  52  50  93 NW15G22   29.96S
FOSSTON        LGT RAIN  48  48 100 NW8G16    29.93S
DETROIT LAKES  PTCLDY    57  46  67 NW13G18   29.94S
MOORHEAD       CLOUDY    61  48  63 NW13G18   29.96S
PARK RAPIDS    CLOUDY    57  46  66 W15       29.89F
$$
MNZ006-009>011-018-025>026-140800-
   North Central Minnesota

CITY           SKY/WX    TMP DP  RH WIND       PRES   REMARKS
BAUDETTE       CLOUDY    51  48  89 NW12      29.84S
FLAG ISLAND    CLOUDY    52  48  87 NW22      29.85S
INTL FALLS     CLOUDY    49  48  97 W7        29.79F
WASKISH        CLOUDY    52  48  87 W15G23    29.85F
BIG FORK       CLOUDY    52  48  87 NW6       29.84F
LONGVILLE      MOCLDY    54  48  82 W6        29.87F
GRAND RAPIDS   CLOUDY    54  48  82 W8        29.84F
CRANE LAKE     LGT RAIN  50  48  93 W5        29.80S
ORR            CLOUDY    50  46  87 W13G18    29.78F
COOK           LGT RAIN  52  50  93 W7        29.81F
$$
MNZ012-019>021-037-140800-
   Northeast Minnesota

CITY           SKY/WX    TMP DP  RH WIND       PRES   REMARKS
DULUTH         PTCLDY    50  47  89 W8        29.84F
ELY            CLOUDY    52  48  87 W6        29.80S
HIBBING        LGT RAIN  54  49  83 W7        29.82F
EVELETH        CLOUDY    52  50  93 W8        29.83F
DULUTH HARBOR  CLOUDY    57  52  82 SW7       29.85F
TWO HARBORS    CLEAR     50  45  81 W5        29.81F
SILVER BAY     CLEAR     46  46 100 CALM      29.80F
GRAND MARAIS     N/A     44  42  93 W3        29.79F
G MARAIS ARPRT MOCLDY    48  45  87 W5        29.80F
$$
MNZ029>031-032-039>041-046>048-054>057-064-140800-
   West Central Minnesota

CITY           SKY/WX    TMP DP  RH WIND       PRES   REMARKS
FERGUS FALLS   CLOUDY    61  45  55 NW12G18   29.95F
WHEATON        CLOUDY    61  48  63 NW7       29.98F
MORRIS         MOCLDY    57  52  82 W7        29.94F
ALEXANDRIA     CLOUDY    62  46  55 NW17      29.94F
ELBOW LAKE     CLOUDY    59  48  67 NW10      29.95S
WADENA         CLOUDY    57  48  72 NW7       29.91F
GLENWOOD       PTCLDY    55  48  76 W7        29.94F
APPLETON       MOCLDY    55  52  88 W3        29.95F
BENSON         CLOUDY    57  52  82 NW5       29.95S
ORTONVILLE     PTCLDY    61  52  72 NW6       29.97S
MADISON        CLEAR     57  52  82 NW5       29.97S
WILLMAR        MOCLDY    57  50  77 W5        29.95F
$$
MNZ033>034-036-042>043-049>051-058-059-140800-
   Central Minnesota

CITY           SKY/WX    TMP DP  RH WIND       PRES   REMARKS
ST CLOUD       PTCLDY    57  49  74 CALM      29.90F
SAUK CENTRE    CLOUDY    55  50  83 W7        29.93S
PAYNESVILLE    PTCLDY    49  47  93 SW6       29.93F
AITKIN         MOCLDY    57  50  77 SW5       29.86F
PINE RIVER       N/A     55  48  76 CALM      29.92F
BRAINERD       CLOUDY    63  48  58 W9        29.89F
STAPLES        CLOUDY    55  48  76 W7        29.91F
LONG PRAIRIE   CLOUDY    59  50  72 W3        29.93S
LITTLE FALLS   MOCLDY    54  50  87 CALM      29.91S
LITCHFIELD     CLOUDY    63  52  67 W7        29.93F
BUFFALO        CLOUDY    62  51  66 W5        29.91F
MAPLE LAKE     MOCLDY    60  52  74 NW5       29.92S
$$
MNZ037-044-045-052-053-140800-
   East Central Minnesota

CITY           SKY/WX    TMP DP  RH WIND       PRES   REMARKS
PRINCETON      CLOUDY    59  52  77 W3        29.90F
MORA           CLOUDY    55  48  76 CALM      29.90F
CAMBRIDGE      CLOUDY    61  48  63 CALM      29.88S
RUSH CITY      CLOUDY    58  50  73 CALM      29.89S
MOOSE LAKE     PTCLDY    50  50 100 SW5       29.85F
HINCKLEY       CLOUDY    54  52  94 CALM      29.88F
CLOQUET        CLEAR     52  48  87 W6        29.85F
MCGREGOR       CLEAR     52  52 100 SW3       29.87F
$$
MNZ071>073-080-081-089-090-097-098-140800-
   Southwest Minnesota

CITY           SKY/WX    TMP DP  RH WIND       PRES   REMARKS
MONTEVIDEO     CLEAR     57  50  77 NW5       29.96F
GRANITE FALLS  CLEAR     54  50  86 W7        29.97F
CANBY          CLEAR     55  50  82 W7        29.99S
MARSHALL       CLEAR     55  46  71 W7        29.96S
REDWOOD FALLS  CLEAR     58  51  78 NW8       29.94S
OLIVIA         CLEAR     55  50  82 NW6       29.93F
PIPESTONE      CLEAR     57  48  72 NW6       30.00S
WINDOM         CLEAR     54  48  82 W5        29.97S
WORTHINGTON    CLEAR     54  48  82 W7        29.99S
JACKSON        CLEAR     55  48  76 W3        29.97F
TRACY          CLEAR     58  49  70 NW6       29.97F
SLAYTON        CLEAR     54  47  78 CALM      29.99F
$$
MNZ065>067-074>077-082>085-091>093-140800-
   South Central Minnesota

CITY           SKY/WX    TMP DP  RH WIND       PRES   REMARKS
MANKATO        CLEAR     59  46  63 W7        29.92S
NEW ULM        CLEAR     57  54  88 W7        29.93F
ST JAMES       CLEAR     55  48  76 W6        29.95S
FAIRMONT       CLEAR     57  48  72 W3        29.95S
GLENCOE        CLEAR     60  50  70 W7        29.91F
FARIBAULT      CLEAR     61  48  63 W6        29.91F
OWATONNA       CLEAR     57  48  72 SW7       29.91F
WASECA         CLEAR     50  45  81 CALM      29.93F
ALBERT LEA     CLEAR     57  55  94 SW3       29.93F
$$
MNZ078>079-086>088-094>096-140800-
   Southeast Minnesota

CITY           SKY/WX    TMP DP  RH WIND       PRES   REMARKS
ROCHESTER      CLEAR     55  50  83 SW7       29.92F
RED WING       CLEAR     54  52  94 CALM      29.87F
STANTON        CLEAR     56  49  78 SW3       29.89S
DODGE CENTER   CLEAR     55  50  82 W6        29.91F
WINONA         CLEAR     59  57  94 CALM      29.88F
AUSTIN         CLEAR     57  50  77 SW2       29.92F
PRESTON        CLEAR     57  51  81 SW7       29.92F
$$
ABBREVIATIONS USED IN REMARKS
   TC - TEMPERATURES IN CELSIUS
  WCI - WIND CHILL INDEX
   HX - HEAT INDEX
  VSB - VISIBILITY
$$



USA.gov is the U.S. government's official web portal to all federal, state and local government web resources and services.